EW4431 Weather Reports


Display with metric or nautical units.
time (UTC)temp
F
wind
direction
speed
MPH
gust
MPH
rain 1hr
in
rain 24hr
in
rain mn
in
humidity
%
barometer
mb
20260505021530 74 314 0.0 2.0 0.00 0.00 0.00 40 1007.8
20260505020032 74 286 0.0 2.0 0.00 0.00 0.00 39 1007.8
20260505014534 75 281 0.0 3.0 0.00 0.00 0.00 40 1007.5
20260505013027 75 32 0.0 3.0 0.00 0.00 0.00 39 1007.4
20260505011532 76 281 1.0 4.0 0.00 0.00 0.00 38 1007.4
20260505010026 76 65 0.0 3.0 0.00 0.00 0.00 38 1007.5
20260505004623 76 272 0.0 2.0 0.00 0.00 0.00 37 1007.6
20260505003053 76 267 0.0 3.0 0.00 0.00 0.00 37 1007.6
20260505001555 76 263 1.0 4.0 0.00 0.00 0.00 37 1007.7
20260505000106 76 280 0.0 6.0 0.00 0.00 0.00 39 1008.0
20260504234547 76 267 0.0 4.0 0.00 0.00 0.00 38 1008.0
20260504233046 76 276 0.0 3.0 0.00 0.00 0.00 39 1007.7
20260504231546 76 288 1.0 4.0 0.00 0.00 0.00 38 1007.8
20260504230015 77 47 0.0 4.0 0.00 0.00 0.00 37 1007.8
20260504224515 76 289 1.0 5.0 0.00 0.00 0.00 37 1008.0
20260504223042 77 281 0.0 3.0 0.00 0.00 0.00 38 1008.2
20260504221551 76 299 2.0 7.0 0.00 0.00 0.00 38 1008.3
20260504220038 76 290 1.0 4.0 0.00 0.00 0.00 39 1008.2
20260504214536 76 285 1.0 5.0 0.00 0.00 0.00 40 1008.5
20260504213041 76 292 2.0 6.0 0.00 0.00 0.00 39 1008.9
20260504211531 77 288 1.0 6.0 0.00 0.00 0.00 39 1009.3
20260504210028 77 312 2.0 9.0 0.00 0.00 0.00 39 1009.1
20260504204528 78 245 2.0 9.0 0.00 0.00 0.00 37 1009.1
20260504203028 77 276 1.0 7.0 0.00 0.00 0.00 39 1009.0
20260504201524 76 279 3.0 7.0 0.00 0.00 0.00 38 1009.0
20260504200020 76 283 0.0 8.0 0.00 0.00 0.00 41 1009.1
20260504194519 76 315 1.0 7.0 0.00 0.00 0.00 41 1009.0
20260504193018 76 269 3.0 9.0 0.00 0.00 0.00 40 1009.6
20260504191516 76 286 1.0 6.0 0.00 0.00 0.00 41 1009.4
20260504190012 75 287 0.0 6.0 0.00 0.00 0.00 42 1009.0
20260504184511 75 278 0.0 5.0 0.00 0.00 0.00 44 1009.1
20260504183007 75 218 2.0 8.0 0.00 0.00 0.00 44 1009.5
20260504181504 74 304 3.0 11.0 0.00 0.00 0.00 44 1009.9
20260504180032 74 357 1.0 5.0 0.00 0.00 0.00 46 1009.5
20260504174530 74 271 1.0 6.0 0.00 0.00 0.00 44 1009.1
20260504173028 76 127 1.0 7.0 0.00 0.00 0.00 33 1008.9
20260504171527 76 203 2.0 9.0 0.00 0.00 0.00 33 1009.2
20260504081502 75 136 0.0 3.0 0.00 0.00 0.00 37 1006.8
20260504044529 81 256 2.0 8.0 0.00 0.00 0.00 23 1006.7
20260504043024 82 179 2.0 9.0 0.00 0.00 0.00 23 1006.6
20260504041524 82 287 3.0 10.0 0.00 0.00 0.00 22 1006.1
20260504040022 82 269 2.0 12.0 0.00 0.00 0.00 22 1006.0
20260504034519 83 251 4.0 12.0 0.00 0.00 0.00 20 1005.7
20260504033017 84 289 3.0 12.0 0.00 0.00 0.00 19 1005.0
20260504031555 84 264 4.0 10.0 0.00 0.00 0.00 18 1004.9
20260504030054 85 253 3.0 11.0 0.00 0.00 0.00 17 1004.6
20260504024603 85 292 4.0 14.0 0.00 0.00 0.00 17 1004.1
20260504023045 86 247 6.0 18.0 0.00 0.00 0.00 16 1003.7